Presure
141 179 145 149 173 152 160 166 199 189 163 181 200 181 184 177 174 161 205 182 211 204 206 243 215 244 292 385 358 354 348 348 363 342 328 337 342 345 357 387 355 359 253 234 238 236 212
134 134 175 130 127 152 158 151 154 179 161 204 126 123 184 184 201 161 196 193 208 227 228 225 241 233 388 369 358 345 344 354 321 319 315 315 316 324 331 344 360 406 351 270 188 250 233
128 147 119 110 125 135 142 150 157 164 211 221 192 163 172 115 183 180 192 223 170 218 224 236 235 224 307 362 356 359 343 335 312 303 302 305 317 325 326 326 347 363 381 348 273 253 247
131 132 132 126 140 143 127 129 130 146 139 177 203 185 131 160 171 203 158 196 218 198 201 222 237 221 286 363 356 357 343 315 295 294 297 294 303 309 327 332 330 344 367 390 364 354 243
127 140 123 113 124 135 142 135 128 142 145 135 152 182 184 171 188 179 184 217 171 176 193 217 232 230 210 374 358 341 314 307 291 294 291 298 294 307 325 331 329 338 339 339 320 399 351
162 158 132 125 131 153 131 140 149 133 136 146 145 147 181 193 146 166 180 203 198 221 215 214 225 215 225 283 353 345 306 312 290 283 292 272 289 279 315 310 313 311 316 314 293 357 375
146 139 122 120 126 126 123 160 123 138 144 131 120 143 144 181 175 180 162 208 204 202 222 218 208 210 230 236 311 340 344 303 309 285 287 292 271 284 271 304 299 307 298 311 323 347 369
147 130 135 122 114 118 118 126 121 146 138 142 125 136 129 135 177 171 173 192 189 189 212 223 214 210 231 220 173 320 335 340 318 301 288 290 275 272 272 271 288 299 305 316 312 317 108
126 133 182 130 148 106 125 119 134 144 127 131 140 133 136 139 193 151 175 198 188 206 177 149 224 202 202 211 227 202 127 149 275 339 310 298 289 289 280 273 283 286 294 302 301 300 315
180 154 150 140 135 122 131 122 137 131 131 132 114 146 133 140 128 184 186 169 178 204 176 162 218 197 205 201 214 205 152 168 168 327 339 320 330 309 301 296 289 306 288 300 296 295 295
147 172 114 123 177 167 139 181 103 131 130 126 129 132 124 117 173 153 132 200 157 201 200 185 137 183 219 207 213 217 184 233 146 351 325 169 307 308 132 305 301 304 309 285 296 299 297
141 167 155 123 190 180 146 164 124 129 119 113 116 129 135 113 191 132 168 147 178 181 200 153 182 195 191 217 204 215 219 213 199 257 301 252 256 313 131 299 301 298 294 301 306 298 304
175 126 138 134 142 162 195 126 175 166 155 152 155 110 175 130 135 134 130 153 159 186 186 186 159 215 163 210 206 201 210 185 208 166 138 219 271 300 117 181 301 284 297 300 310 317 303
207 175 127 174 176 184 203 141 129 185 153 138 117 175 110 143 138 139 121 184 168 163 179 195 202 153 156 158 207 207 207 209 201 177 170 158 252 258 167 258 160 309 285 272 114 296 322
126 138 175 158 196 182 134 186 147 174 135 181 173 163 127 127 136 157 128 187 121 178 146 180 194 185 150 193 154 199 193 203 202 198 173 174 180 241 248 175 240 242 295 318 315 145 312
190 146 188 182 150 182 179 169 189 188 183 130 177 140 122 128 183 123 145 145 167 175 179 186 177 188 186 195 189 180 202 217 194 206 206 140 151 168 162 115 149 127 200 275 323 316 319
192 172 179 194 198 146 176 177 160 191 186 162 143 168 151 188 128 186 129 112 176 158 183 180 172 184 184 187 178 201 206 203 208 188 200 225 178 210 161 141 117 131 244 175 233 267 281
148 182 185 163 191 183 188 181 179 178 173 129 181 176 173 180 134 134 127 166 131 142 172 188 173 179 179 200 190 180 182 196 203 213 187 208 211 213 184 220 165 136 149 169 126 243 140
178 206 198 179 182 200 213 166 195 195 186 169 184 182 165 174 182 124 159 184 134 137 181 179 165 158 195 140 189 174 192 190 147 176 208 206 198 209 208 183 217 187 156 146 231 224 156
200 206 193 193 178 176 198 213 188 195 189 180 182 183 178 180 165 148 187 125 161 165 175 187 177 178 181 158 178 181 202 189 180 185 198 203 192 194 219 205 218 194 200 217 229 184 207
209 222 215 194 209 198 187 183 214 178 189 188 194 190 188 178 178 178 178 183 180 187 180 169 164 152 171 175 175 188 188 191 192 185 177 197 197 197 177 187 208 214 199 193 204 216 220
229 207 198 195 211 202 213 215 150 185 179 190 195 111 178 188 116 190 189 187 174 182 174 181 161 175 196 178 181 169 185 191 197 189 204 164 188 197 205 206 190 215 194 213 180 176 212
228 230 210 217 199 219 190 197 184 203 206 184 198 192 194 190 185 188 183 188 175 177 180 185 182 183 186 169 190 169 192 184 173 185 195 188 190 199 194 200 204 194 206 191 192 196 200
228 237 234 229 135 147 200 201 194 202 198 200 191 193 188 186 184 183 176 180 170 175 157 171 183 179 166 178 179 172 187 169 192 196 198 194 189 189 203 202 209 193 205 187 201 200 194
209 262 277 200 239 221 216 223 221 204 201 202 205 201 191 193 195 182 185 165 186 176 160 169 143 166 175 179 179 183 182 185 175 178 196 193 174 199 198 195 196 206 199 198 178 203 197
242 245 242 216 258 264 235 217 227 221 215 202 192 200 201 187 183 194 187 187 177 174 182 182 170 172 181 163 181 175 179 177 184 184 178 182 189 183 186 188 194 210 201 199 200 196 197
193 225 245 257 249 260 257 250 216 224 209 213 200 205 190 203 190 204 199 196 188 174 178 184 186 189 170 183 173 191 180 186 183 185 174 197 187 192 199 191 193 196 196 199 200 202 201
193 170 196 195 194 202 249 251 266 210 221 223 214 201 204 193 192 184 184 185 184 187 190 180 181 184 181 185 176 185 187 174 181 187 183 189 187 199 199 190 195 193 179 198 196 193 196
179 184 256 254 243 246 244 210 293 224 236 216 226 213 209 196 208 202 205 196 191 195 180 185 186 192 188 172 173 185 186 173 187 185 187 196 198 200 185 185 198 205 206 183 190 191 189
Wind_Speed
10 19 12 14 17 16 19 20 23 23 21 25 29 26 29 29 31 27 42 38 47 55 61 62 69 71 66 47 40 32 32 28 5 6 18 13 15 15 21 25 56 59 97 89 91 92 86
12 11 20 8 9 18 21 21 23 27 23 30 17 20 33 37 41 30 41 48 49 51 58 67 71 71 56 48 41 35 26 14 7 8 13 11 12 16 18 19 28 32 61 110 65 97 93
17 20 18 21 14 11 16 20 24 27 31 33 29 31 34 22 41 45 40 43 35 54 61 70 73 72 93 54 42 37 18 3 14 10 11 8 8 8 15 19 15 24 39 67 113 100 95
21 18 17 17 16 16 15 14 15 23 20 33 32 34 25 35 42 43 38 50 49 55 61 70 78 74 94 54 42 32 16 17 13 10 9 10 10 12 8 8 14 20 25 34 64 69 97
23 25 21 23 20 17 20 17 16 21 23 21 30 31 35 39 42 46 45 51 41 50 61 68 78 80 72 52 40 30 24 12 10 13 13 8 12 16 11 3 5 18 19 18 18 49 69
34 31 25 22 23 30 20 23 27 20 19 27 27 31 38 40 33 45 49 52 51 59 59 65 74 74 81 92 45 28 32 13 21 21 16 18 21 20 24 11 16 18 22 20 28 22 50
40 34 26 25 25 25 25 33 23 24 27 20 23 30 29 39 42 44 44 53 52 57 62 64 65 71 80 84 73 40 22 27 11 25 22 16 16 20 13 19 9 6 16 29 26 15 32
37 34 35 28 27 26 26 26 25 31 27 29 22 26 24 24 42 43 47 51 52 55 62 65 64 67 78 78 36 66 37 25 18 16 20 19 14 15 16 13 9 7 3 12 23 15 21
39 41 40 34 44 26 31 29 32 33 24 24 33 25 29 31 44 32 45 51 49 57 51 32 66 61 64 71 79 51 17 22 24 19 16 20 13 13 7 8 11 4 2 11 19 20 21
43 44 46 44 38 34 37 32 36 32 28 27 25 33 32 34 24 41 43 43 44 55 52 35 64 55 62 61 71 59 23 31 14 31 24 20 5 9 14 8 6 4 7 7 17 23 29
51 46 38 38 50 47 41 43 26 35 32 28 29 28 28 26 40 32 29 51 36 52 52 50 32 48 65 61 65 70 36 68 26 37 35 5 25 23 8 13 10 7 3 8 10 22 29
54 51 50 45 48 50 38 47 32 35 26 30 23 29 33 27 46 30 37 32 45 45 53 31 48 52 51 64 59 65 67 62 44 82 63 29 24 29 7 19 12 13 8 4 12 20 24
53 53 55 52 41 50 50 36 50 47 41 43 45 30 48 25 31 29 32 34 39 43 45 45 37 58 36 59 58 53 61 36 54 22 6 53 76 54 8 9 20 16 11 10 10 15 27
64 55 55 58 57 53 48 50 38 52 44 44 29 48 30 41 34 28 29 43 38 38 35 52 54 35 27 33 56 55 58 58 49 26 22 12 75 71 14 64 13 22 13 9 15 8 15
60 64 57 58 67 59 53 52 53 55 47 51 52 49 36 31 38 39 30 45 28 37 35 37 50 43 21 46 28 52 45 51 50 43 23 26 30 65 67 25 59 54 22 17 11 8 7
84 65 79 67 62 65 61 58 56 59 57 46 55 48 32 33 53 23 37 37 42 36 37 42 34 44 42 50 44 39 53 56 42 53 45 12 13 11 10 10 10 6 29 60 31 17 9
89 71 70 82 77 61 66 64 58 60 62 56 50 56 51 57 25 49 31 31 46 37 42 38 30 41 44 46 42 50 49 49 47 33 46 58 23 42 13 9 15 12 57 20 45 62 61
67 79 79 63 84 73 76 71 67 64 62 50 63 60 56 59 41 43 23 46 35 36 38 48 32 35 34 49 45 36 37 42 46 48 36 44 43 46 17 47 11 17 12 14 15 48 14
81 89 93 83 76 85 74 67 74 71 68 64 67 66 57 58 62 33 49 52 32 33 47 45 31 31 52 26 45 33 44 43 22 30 43 39 36 37 40 20 44 16 16 19 41 32 14
86 97 96 96 80 70 78 71 71 78 76 69 71 70 66 65 56 50 63 27 49 45 48 52 43 42 40 36 35 36 51 40 37 33 38 37 29 33 36 34 39 21 24 34 38 15 20
92 88 93 97 85 87 94 84 73 72 77 76 73 74 75 67 66 62 62 63 58 60 55 47 39 34 36 36 44 48 47 45 41 34 31 35 33 32 24 25 31 31 24 17 25 27 27
93 99 96 96 89 96 84 76 69 88 79 71 76 48 72 74 46 73 69 68 61 61 55 58 46 46 55 44 41 33 44 49 49 44 43 30 28 37 38 31 23 32 23 27 17 17 21
93 92 89 95 93 92 93 95 91 89 85 87 82 80 75 77 72 72 67 69 62 62 63 62 59 54 57 40 56 36 52 43 30 43 48 39 37 40 36 36 29 25 27 23 21 21 21
90 98 96 96 73 75 92 98 94 90 91 88 87 86 85 81 81 77 67 69 59 63 54 54 63 58 45 52 51 42 49 35 52 54 52 49 42 43 45 44 39 24 28 26 26 24 25
87 82 67 74 99 97 98 95 90 95 94 91 90 87 79 86 84 81 78 63 73 64 57 60 45 51 55 57 55 58 57 58 44 46 57 54 34 51 49 44 40 40 35 33 34 33 35
93 91 92 88 96 94 98 99 96 95 95 94 94 93 90 87 83 88 84 82 73 67 74 74 63 62 71 46 64 55 58 55 62 59 46 49 56 44 50 51 50 44 43 42 43 39 37
70 91 89 90 94 88 96 97 97 98 95 100 97 95 92 90 94 85 82 81 86 73 79 79 77 78 61 74 60 64 66 70 62 64 44 65 58 59 56 58 59 52 49 50 49 50 49
68 61 80 65 72 78 91 95 97 90 99 99 102 100 98 94 93 88 84 85 78 85 86 79 80 83 78 80 69 79 76 55 67 75 66 72 62 68 67 63 66 57 39 54 53 53 56
78 64 84 86 94 95 93 96 85 97 97 98 100 103 105 95 97 99 93 92 92 90 82 84 82 87 85 65 67 80 78 58 78 75 76 76 72 70 69 70 71 68 66 52 62 64 61
Wind_Direction
291 313 313 316 340 324 330 328 331 345 341 329 334 329 337 331 335 324 328 328 324 321 320 332 322 325 334 341 338 328 321 321 324 230 268 284 258 257 252 249 236 234 236 230 231 231 230
268 268 311 272 278 321 323 329 328 334 327 340 316 310 341 334 331 334 332 331 325 331 333 326 335 333 351 349 348 339 331 331 298 306 309 303 276 272 257 260 245 232 227 231 230 230 227
253 284 264 277 266 302 319 323 323 328 340 334 339 327 333 314 335 334 334 337 337 338 340 344 342 342 1 357 356 355 354 356 34 41 12 323 357 323 275 256 253 235 224 223 228 228 225
258 262 268 267 294 296 277 287 299 322 323 332 339 337 317 334 334 338 343 335 340 332 336 344 352 350 5 2 2 9 34 65 44 349 343 17 15 6 7 278 250 243 226 222 223 221 223
250 275 253 267 273 289 295 296 291 312 315 315 326 333 333 332 335 331 334 343 349 348 336 349 357 355 356 8 7 9 15 39 32 338 357 342 357 9 12 80 212 159 157 199 227 221 219
277 272 262 263 276 288 282 296 301 302 308 317 322 327 328 333 324 334 336 343 344 351 352 354 358 354 358 16 10 7 10 1 1 7 359 22 18 25 42 75 163 181 167 179 217 219 216
271 270 262 267 268 273 276 291 289 303 308 303 303 327 332 328 322 329 339 349 351 346 355 359 355 356 4 9 20 14 358 7 315 4 353 353 9 14 45 55 83 202 218 201 207 220 199
270 266 271 266 275 274 278 282 284 297 304 310 299 317 312 326 326 326 330 341 344 347 360 1 360 360 10 5 5 22 19 15 350 305 347 349 9 11 20 31 34 33 226 219 218 213 218
269 270 282 274 278 275 278 281 290 298 293 301 313 316 322 331 330 323 338 344 343 353 348 346 3 358 2 5 14 20 8 6 13 10 313 315 325 330 0 6 352 304 282 220 192 188 188
283 270 273 274 272 273 275 279 285 289 294 300 285 309 311 322 315 324 332 328 335 351 340 353 4 3 2 6 10 14 2 13 11 32 31 30 9 314 317 332 335 309 242 248 203 196 195
266 276 262 267 284 281 271 288 266 287 292 291 296 302 299 303 321 321 325 340 336 350 353 348 333 3 9 5 8 14 21 30 356 30 46 358 51 56 174 72 68 57 109 235 231 212 205
264 272 270 266 280 283 274 280 270 280 275 276 280 298 302 294 321 322 319 322 338 339 350 336 357 3 3 9 8 14 17 20 26 35 48 47 48 52 79 60 69 88 81 108 180 204 207
272 260 264 265 269 276 279 269 286 287 285 288 293 278 303 300 313 321 317 319 330 338 344 350 340 359 352 9 8 10 12 12 20 16 0 41 48 59 297 57 56 62 76 86 123 179 197
267 272 260 275 275 278 279 271 267 285 280 281 264 297 274 301 302 311 298 319 322 330 338 344 349 333 338 344 7 9 10 12 14 15 8 1 42 44 56 52 26 57 59 50 246 110 168
259 263 268 263 274 274 264 275 272 282 274 283 292 290 282 289 298 303 307 316 303 323 325 342 346 353 329 3 346 6 6 6 11 13 -0 17 36 40 44 45 50 53 67 64 69 258 122
266 263 270 272 265 270 271 272 275 276 279 270 285 279 274 280 298 278 295 309 308 318 325 333 340 345 352 358 357 353 4 8 4 9 12 305 323 0 0 253 23 285 51 56 71 74 63
263 263 265 268 266 263 271 271 268 271 275 276 273 284 280 287 274 297 285 278 309 311 319 323 327 340 344 349 345 1 0 3 6 1 3 15 360 20 346 302 265 295 43 26 53 56 64
258 269 265 260 268 268 267 269 271 271 272 265 276 279 283 286 276 283 270 295 286 305 310 317 320 331 339 337 347 353 351 358 2 5 353 6 10 14 5 25 321 276 309 11 271 47 296
267 255 259 261 272 266 261 270 270 269 270 273 272 275 278 282 285 263 286 291 290 295 303 308 304 308 325 300 337 333 350 356 300 337 3 1 356 10 8 348 21 3 278 276 35 35 295
256 256 263 266 266 263 263 256 264 267 269 271 272 270 275 276 280 274 285 265 290 292 296 302 305 309 320 308 328 331 334 348 341 335 352 -0 351 351 11 7 13 1 6 22 33 338 33
250 251 250 261 253 259 266 268 252 265 269 268 264 265 269 275 274 278 282 284 288 289 292 292 294 291 307 313 316 324 329 334 338 342 337 349 353 352 324 339 357 6 355 347 3 20 20
249 251 256 260 250 258 253 249 263 268 270 258 260 255 271 268 251 273 274 279 282 286 286 291 291 296 302 308 306 306 322 324 328 332 331 312 338 342 347 348 328 353 334 352 308 300 359
251 250 254 251 256 249 259 257 263 256 255 267 256 264 261 262 266 269 271 273 279 281 284 287 290 293 299 294 308 301 314 315 308 325 325 327 328 330 333 336 335 325 343 309 312 312 325
253 254 251 250 256 257 251 253 254 252 254 255 261 261 265 266 267 267 270 271 273 277 277 286 287 290 285 296 298 295 305 293 313 314 316 318 320 322 323 325 325 313 327 296 314 312 297
252 251 256 253 250 248 248 246 246 249 250 248 248 253 259 259 259 268 268 266 270 270 270 278 270 279 288 290 294 295 303 304 302 306 311 313 295 313 316 315 314 315 313 318 278 313 307
251 251 250 250 251 250 246 246 246 243 242 247 254 253 252 260 262 259 265 266 268 268 271 274 276 283 285 276 291 293 298 298 302 303 302 308 309 305 311 311 309 307 310 309 309 308 302
253 252 250 250 252 250 249 246 245 244 246 240 249 246 258 252 257 254 255 260 265 266 271 272 273 276 278 284 284 285 295 296 297 300 289 303 304 301 303 303 303 305 307 306 307 304 304
247 261 253 255 255 251 249 246 246 248 245 240 242 249 248 256 257 262 262 265 265 266 266 270 271 273 276 279 283 286 288 288 294 296 297 300 297 298 298 299 299 301 293 300 300 301 300
266 245 251 251 249 249 248 247 247 245 245 247 243 244 246 254 249 252 253 256 259 259 269 267 268 269 273 272 278 281 282 283 289 292 295 292 293 292 297 297 295 296 296 295 299 299 298